Home > Weather > Arlington > Past weeks

Flag for USA Past Weather in Arlington, Texas, USA — Yesterday and Last 2 Weeks

Now
93 °F

Sunny.


Feels Like: 98 °F
Forecast: 78 / 94 °F
Wind: 10 mph from South

Location: Arlington Municipal Airport

Current Time: Jun 26, 2016 at 12:29:50 PM

Latest Report: Jun 26, 2016 at 11:53 AM


Visibility: 10 mi

Pressure: 30.09 "Hg

Humidity: 46%

Dew Point: 69 °F

Location of ArlingtonLocation

Past Weather in Arlington — Graph

°F

Arlington Temperature Yesterday

Maximum temperature yesterday: 95 °F (at 1:53 PM)
Minimum temperature yesterday: 79 °F (at 6:53 AM)
Average temperature yesterday: 87 °F

High & Low Weather Summary for the Past Weeks

 TemperatureHumidityPressure
High98 °F (Jun 17, 3:53 PM)88% (Jun 14, 1:53 AM)30.19 "Hg (Jun 14, 1:53 AM)
Low75 °F (Jun 20, 5:53 AM)29% (Jun 20, 5:53 PM)29.75 "Hg (Jun 14, 6:53 PM)
Average87 °F61%29.96 "Hg
* Reported Jun 11 10:53 AM — Jun 26 10:53 AM, Arlington, Weather by CustomWeather, © 2016

Note: Actual official high and low records may vary slightly from our data, if they occured in-between our weather recording intervals... More about our weather records

Advertising

Arlington Weather History for the Previous 24 Hours

Scroll right to see more
 ConditionsComfort  
Time TempWeatherWind HumidityBarometerVisibility
10:53 AM
Sun, Jun 26
91 °FSunny.13 mph50%30.09 "Hg10 mi
9:53 AM87 °FSunny.10 mph63%30.09 "Hg10 mi
8:53 AM84 °FSunny.12 mph72%30.09 "Hg10 mi
7:53 AM81 °FSunny.7 mph79%30.08 "Hg10 mi
6:53 AM80 °FClear.5 mph81%30.08 "Hg10 mi
5:53 AM79 °FClear.3 mph82%30.07 "Hg10 mi
4:53 AM80 °FClear.5 mph79%30.05 "Hg10 mi
3:53 AM81 °FClear.5 mph77%30.05 "Hg10 mi
2:53 AM82 °FClear.5 mph74%30.05 "Hg10 mi
1:53 AM83 °FClear.5 mph72%30.04 "Hg10 mi
12:53 AM84 °FClear.5 mph67%30.02 "Hg10 mi
11:53 PM
Sat, Jun 25
84 °FClear.8 mph67%30.00 "Hg10 mi
10:53 PM85 °FClear.8 mph63%29.98 "Hg10 mi
9:53 PM86 °FClear.9 mph61%29.98 "Hg10 mi
8:53 PM88 °FSunny.9 mph57%29.97 "Hg10 mi
7:53 PM89 °FSunny.10 mph55%29.96 "Hg10 mi
6:53 PM91 °FSunny.15 mph52%29.95 "Hg10 mi
5:53 PM91 °FSunny.13 mph54%29.96 "Hg10 mi
4:53 PM92 °FSunny.13 mph52%29.96 "Hg10 mi
3:53 PM93 °FSunny.13 mph49%29.97 "Hg10 mi
2:53 PM94 °FPassing clouds.15 mph48%29.98 "Hg10 mi
1:53 PM95 °FScattered clouds.15 mph47%30.00 "Hg10 mi
12:53 PM93 °FScattered clouds.13 mph49%30.00 "Hg10 mi
Weather by CustomWeather, © 2016

See weather overviewHow to use our weather pages